Weather History for Asheville, NC

Change the Weather History Date:

Thursday, November 15, 2007

  Actual Average Record
Temperature  
Mean Temperature 47 °F 48 °F  
Max Temperature 60 °F 59 °F 77 °F (1897)
Min Temperature 34 °F 36 °F 13 °F (1969)
Degree Days  
Heating Degree Days 18 18  
Month to date heating degree days 264 232  
Since 1 July heating degree days 496 567  
Cooling Degree Days 0 0  
Month to date cooling degree days 0 0  
Year to date cooling degree days 984 862  
Moisture  
Dew Point 35 °F    
Average Humidity 68    
Maximum Humidity 93    
Minimum Humidity 42    
Precipitation  
Precipitation 0.53 in 0.11 in 2.08 in (1989)
Month to date precipitation 0.62 1.63  
Year to date precipitation 29.46 39.96  
Snow  
Snow T in 0.00 in T in (2007)
Month to date snowfall T 0.0  
Since 1 July snowfall T 0.0  
Since 1 September snowfall T 0.0  
Snow Depth -    
Sea Level Pressure  
Sea Level Pressure 29.86 in    
Wind  
Wind Speed 19 mph (NNW)    
Max Wind Speed 31 mph    
Max Gust Speed 40 mph    
Visibility 9 miles    
Events Rain , Snow    
T = Trace of Precipitation, MM = Missing Value Source: NWS Daily Summary

Daily Weather History Graph

Daily Weather History Graph

Search for Another Location

Airport:

Trip Planner

Search our weather history database for the weather conditions in past years. The results will help you decide how hot, cold, wet, or windy it might be!

Date:

Astronomy

Nov. 15, 2007 Rise Set
Actual Time 7:05 AM EST 5:23 PM EST
Civil Twilight 6:38 AM EST 5:50 PM EST
Nautical Twilight 6:07 AM EST 6:21 PM EST
Astronomical Twilight 5:37 AM EST 6:51 PM EST
Moon 12:03 PM EST (11/15) 10:01 PM EST (11/15)
Length of Visible Light 11h 12m
Length of Day
10h 18m
Waxing Crescent, 28% of the Moon is Illuminated
Nov 15
Waxing Crescent
Nov 17
First Quarter
Nov 24
Full
Dec 1
Last Quarter
Dec 9
New

Hourly Weather History & Observations

Time (EST) Temp. Windchill Dew Point Humidity Pressure Visibility Wind Dir Wind Speed Gust Speed Precip Events Conditions
12:08 AM 60.8 °F - 57.2 °F 88% 29.85 in 2.5 mi SW 15.0 mph 21.9 mph 0.08 in Rain Heavy Rain
12:13 AM 59.0 °F - 55.4 °F 88% 29.86 in 1.8 mi WNW 6.9 mph 25.3 mph 0.14 in Rain Heavy Rain
12:37 AM 57.2 °F - 55.4 °F 94% 29.83 in 2.5 mi SE 5.8 mph - 0.39 in Rain Heavy Rain
12:44 AM 57.2 °F - 53.6 °F 88% 29.82 in 4.0 mi SE 8.1 mph - 0.41 in Rain Heavy Rain
12:54 AM 57.0 °F - 54.0 °F 89% 29.75 in 6.0 mi ESE 4.6 mph - 0.44 in Rain Rain
1:45 AM 55.4 °F - 53.6 °F 94% 29.77 in 10.0 mi Calm Calm - 0.08 in Rain Light Rain
1:54 AM 55.9 °F - 54.0 °F 93% 29.71 in 10.0 mi Calm Calm - 0.08 in   Overcast
2:54 AM 55.9 °F - 54.0 °F 93% 29.70 in 9.0 mi NNW 4.6 mph - N/A   Overcast
3:01 AM 55.4 °F - 53.6 °F 94% 29.76 in 10.0 mi NNW 8.1 mph - 0.00 in Rain Light Rain
3:54 AM 51.1 °F - 48.0 °F 89% 29.73 in 8.0 mi North 15.0 mph 24.2 mph 0.03 in   Overcast
4:54 AM 48.0 °F - 44.1 °F 86% 29.75 in 10.0 mi NNW 17.3 mph - 0.00 in   Overcast
5:08 AM 48.2 °F - 44.6 °F 87% 29.79 in 10.0 mi NNW 18.4 mph 24.2 mph N/A   Overcast
5:54 AM 46.9 °F - 41.0 °F 80% 29.75 in 10.0 mi North 13.8 mph 21.9 mph N/A   Overcast
6:54 AM 45.0 °F 38.2 °F 34.0 °F 65% 29.77 in 10.0 mi NNW 15.0 mph 25.3 mph N/A   Overcast
7:54 AM 44.1 °F 36.5 °F 34.0 °F 68% 29.79 in 10.0 mi NNW 17.3 mph 21.9 mph N/A   Mostly Cloudy
8:54 AM 43.0 °F 32.5 °F 28.0 °F 56% 29.82 in 10.0 mi NNW 29.9 mph 36.8 mph N/A   Clear
9:54 AM 44.1 °F 34.4 °F 26.1 °F 49% 29.83 in 10.0 mi NNW 27.6 mph 32.2 mph N/A   Mostly Cloudy
10:54 AM 46.0 °F 38.3 °F 25.0 °F 44% 29.85 in 10.0 mi NW 20.7 mph 27.6 mph N/A   Mostly Cloudy
11:54 AM 44.1 °F 35.9 °F 26.1 °F 49% 29.85 in 10.0 mi NNW 19.6 mph 27.6 mph N/A   Overcast
12:54 PM 42.1 °F 33.3 °F 25.0 °F 51% 29.87 in 10.0 mi NNW 19.6 mph 26.5 mph N/A   Overcast
1:54 PM 41.0 °F 31.1 °F 21.9 °F 47% 29.87 in 10.0 mi NNW 23.0 mph 32.2 mph N/A   Mostly Cloudy
2:54 PM 39.9 °F 30.2 °F 21.9 °F 49% 29.88 in 10.0 mi NNW 20.7 mph 28.8 mph N/A   Overcast
3:54 PM 37.9 °F 27.3 °F 21.9 °F 53% 29.91 in 10.0 mi NW 21.9 mph 32.2 mph N/A   Overcast
4:54 PM 37.0 °F 25.6 °F 24.1 °F 59% 29.94 in 9.0 mi NW 24.2 mph 31.1 mph 0.00 in Snow Light Snow
5:54 PM 36.0 °F 26.0 °F 23.0 °F 59% 29.96 in 10.0 mi NNW 17.3 mph 29.9 mph 0.00 in   Overcast
6:54 PM 35.1 °F 22.2 °F 18.0 °F 50% 30.00 in 9.0 mi NW 27.6 mph 38.0 mph 0.00 in Snow Light Snow
7:54 PM 35.1 °F 22.2 °F 18.0 °F 50% 30.01 in 9.0 mi NNW 27.6 mph 35.7 mph 0.00 in Snow Light Snow
8:54 PM 34.0 °F 22.1 °F 18.0 °F 52% 30.01 in 9.0 mi NNW 21.9 mph 34.5 mph 0.00 in Snow Light Snow
9:54 PM 35.1 °F 23.8 °F 18.0 °F 50% 30.04 in 10.0 mi NNW 20.7 mph 27.6 mph 0.00 in   Overcast
10:54 PM 34.0 °F 24.2 °F 19.0 °F 54% 30.04 in 10.0 mi NNW 15.0 mph - N/A   Overcast
11:54 PM 34.0 °F 22.4 °F 19.0 °F 54% 30.04 in 10.0 mi NNW 20.7 mph 27.6 mph N/A   Overcast